Time,TemperatureF,DewpointF,PressureIn,WindDirection,WindDirectionDegrees,WindSpeedMPH,WindSpeedGustMPH,Humidity,HourlyPrecipIn,Conditions,Clouds,dailyrainin,SoftwareType,DateUTC
2013-05-05 00:02:00,54.0,52.0,29.96,South,178,0.0,0.0,92,0.00,,,0.08,,2013-05-05 05:02:00,
2013-05-05 00:12:00,54.0,52.0,29.96,South,178,0.0,0.0,92,0.00,,,0.08,,2013-05-05 05:12:00,
2013-05-05 00:21:00,54.0,52.0,29.96,South,178,0.0,0.0,92,0.00,,,0.08,,2013-05-05 05:21:00,
2013-05-05 00:31:00,54.0,52.0,29.96,South,178,1.0,3.0,92,0.00,,,0.07,,2013-05-05 05:31:00,
2013-05-05 00:42:00,54.0,52.0,29.96,South,178,1.0,3.0,92,0.00,,,0.07,,2013-05-05 05:42:00,
2013-05-05 00:52:00,54.0,52.0,29.96,South,178,0.0,1.0,92,0.01,,,0.08,,2013-05-05 05:52:00,
2013-05-05 01:01:00,54.0,52.0,29.96,South,178,0.0,0.0,92,0.01,,,0.08,,2013-05-05 06:01:00,
2013-05-05 01:12:00,54.0,52.0,29.96,South,178,0.0,0.0,92,0.01,,,0.08,,2013-05-05 06:12:00,
2013-05-05 01:21:00,54.0,52.0,29.96,South,178,0.0,1.0,92,0.01,,,0.08,,2013-05-05 06:21:00,
2013-05-05 01:32:00,54.0,52.0,29.96,South,178,0.0,0.0,93,0.01,,,0.08,,2013-05-05 06:32:00,
2013-05-05 01:42:00,54.0,52.0,29.96,South,178,0.0,0.0,93,0.01,,,0.08,,2013-05-05 06:42:00,
2013-05-05 01:52:00,54.0,52.0,29.95,South,178,0.0,0.0,93,0.01,,,0.08,,2013-05-05 06:52:00,
2013-05-05 02:01:00,54.0,52.0,29.95,South,178,0.0,0.0,93,0.01,,,0.08,,2013-05-05 07:01:00,
2013-05-05 02:11:00,54.0,52.0,29.95,South,178,0.0,0.0,93,0.01,,,0.08,,2013-05-05 07:11:00,
2013-05-05 02:21:00,54.0,52.0,29.95,South,178,0.0,0.0,93,0.02,,,0.09,,2013-05-05 07:21:00,
2013-05-05 02:32:00,54.0,52.0,29.95,South,178,0.0,0.0,93,0.03,,,0.10,,2013-05-05 07:32:00,
2013-05-05 02:42:00,54.0,52.0,29.95,South,178,0.0,0.0,93,0.03,,,0.10,,2013-05-05 07:42:00,
2013-05-05 02:52:00,54.0,52.0,29.93,WNW,294,0.0,3.0,93,0.02,,,0.10,,2013-05-05 07:52:00,
2013-05-05 03:02:00,54.0,52.0,29.93,WNW,294,0.0,0.0,93,0.02,,,0.10,,2013-05-05 08:02:00,
2013-05-05 03:11:00,54.0,52.0,29.93,WNW,294,0.0,0.0,93,0.02,,,0.10,,2013-05-05 08:11:00,
2013-05-05 03:21:00,54.0,52.0,29.93,NW,322,6.0,6.0,93,0.01,,,0.10,,2013-05-05 08:21:00,
2013-05-05 03:31:00,54.0,52.0,29.93,NW,323,1.0,5.0,93,0.00,,,0.10,,2013-05-05 08:31:00,
2013-05-05 03:42:00,54.0,52.0,29.93,NW,323,1.0,5.0,93,0.00,,,0.10,,2013-05-05 08:42:00,
2013-05-05 03:53:00,54.0,52.0,29.92,NW,315,0.0,5.0,93,0.00,,,0.10,,2013-05-05 08:53:00,
2013-05-05 04:01:00,54.0,52.0,29.91,NW,315,0.0,0.0,93,0.00,,,0.10,,2013-05-05 09:01:00,
2013-05-05 04:11:00,54.0,52.0,29.91,NW,315,0.0,0.0,93,0.00,,,0.10,,2013-05-05 09:11:00,
2013-05-05 04:21:00,54.0,52.0,29.91,NW,315,0.0,1.0,93,0.00,,,0.10,,2013-05-05 09:21:00,
2013-05-05 04:32:00,53.0,51.0,29.91,NW,315,0.0,1.0,93,0.00,,,0.10,,2013-05-05 09:32:00,
2013-05-05 04:42:00,53.0,51.0,29.91,NW,315,0.0,1.0,93,0.00,,,0.10,,2013-05-05 09:42:00,
2013-05-05 04:52:00,53.0,51.0,29.90,NW,315,0.0,1.0,93,0.00,,,0.10,,2013-05-05 09:52:00,
2013-05-05 05:02:00,53.0,51.0,29.90,NW,315,0.0,1.0,93,0.00,,,0.10,,2013-05-05 10:02:00,
2013-05-05 05:12:00,53.0,51.0,29.90,NW,315,0.0,1.0,93,0.00,,,0.10,,2013-05-05 10:12:00,
2013-05-05 05:22:00,53.0,51.0,29.90,NW,315,0.0,0.0,93,0.00,,,0.10,,2013-05-05 10:22:00,
2013-05-05 05:32:00,53.0,51.0,29.90,NW,315,0.0,0.0,93,0.00,,,0.10,,2013-05-05 10:32:00,
2013-05-05 05:42:00,53.0,51.0,29.90,NW,315,0.0,0.0,93,0.00,,,0.10,,2013-05-05 10:42:00,
2013-05-05 05:53:00,53.0,51.0,29.90,NW,315,0.0,0.0,93,0.00,,,0.10,,2013-05-05 10:53:00,
2013-05-05 06:01:00,53.0,51.0,29.90,NW,315,0.0,0.0,94,0.00,,,0.10,,2013-05-05 11:01:00,
2013-05-05 06:12:00,53.0,51.0,29.90,NW,315,0.0,0.0,94,0.00,,,0.10,,2013-05-05 11:12:00,
2013-05-05 06:21:00,53.0,51.0,29.90,NW,315,0.0,3.0,94,0.00,,,0.10,,2013-05-05 11:21:00,
2013-05-05 06:32:00,53.0,51.0,29.90,NW,315,1.0,5.0,94,0.00,,,0.10,,2013-05-05 11:32:00,
2013-05-05 06:42:00,53.0,51.0,29.90,NW,315,1.0,5.0,94,0.00,,,0.10,,2013-05-05 11:42:00,
2013-05-05 06:52:00,53.0,51.0,29.89,NW,315,1.0,3.0,94,0.00,,,0.10,,2013-05-05 11:52:00,
2013-05-05 07:02:00,54.0,52.0,29.90,NNE,20,1.0,5.0,94,0.00,,,0.10,,2013-05-05 12:02:00,
2013-05-05 07:11:00,54.0,52.0,29.90,NNE,20,1.0,5.0,94,0.00,,,0.10,,2013-05-05 12:11:00,
2013-05-05 07:21:00,54.0,52.0,29.89,NNW,338,6.0,8.0,94,0.00,,,0.10,,2013-05-05 12:21:00,
2013-05-05 07:32:00,54.0,52.0,29.90,North,5,2.0,8.0,93,0.00,,,0.10,,2013-05-05 12:32:00,
2013-05-05 07:42:00,54.0,52.0,29.90,North,5,2.0,8.0,93,0.00,,,0.10,,2013-05-05 12:42:00,
2013-05-05 07:52:00,54.0,52.0,29.90,North,6,7.0,10.0,93,0.00,,,0.10,,2013-05-05 12:52:00,
2013-05-05 08:01:00,54.0,52.0,29.90,NNW,344,5.0,9.0,93,0.00,,,0.10,,2013-05-05 13:01:00,
2013-05-05 08:11:00,54.0,52.0,29.90,NNW,344,5.0,9.0,93,0.00,,,0.10,,2013-05-05 13:11:00,
2013-05-05 08:21:00,55.0,53.0,29.90,NNE,15,6.0,8.0,93,0.00,,,0.10,,2013-05-05 13:21:00,
2013-05-05 08:32:00,55.0,53.0,29.90,NE,35,8.0,9.0,93,0.00,,,0.10,,2013-05-05 13:32:00,
2013-05-05 08:42:00,55.0,53.0,29.90,NE,35,8.0,9.0,93,0.00,,,0.10,,2013-05-05 13:42:00,
2013-05-05 08:52:00,56.0,54.0,29.91,NNE,16,4.0,10.0,92,0.00,,,0.10,,2013-05-05 13:52:00,
2013-05-05 09:02:00,56.0,53.0,29.91,NE,42,5.0,9.0,91,0.00,,,0.10,,2013-05-05 14:02:00,
2013-05-05 09:11:00,56.0,53.0,29.91,NE,42,5.0,9.0,91,0.00,,,0.10,,2013-05-05 14:11:00,
2013-05-05 09:21:00,57.0,54.0,29.91,ENE,60,5.0,6.0,89,0.00,,,0.10,,2013-05-05 14:21:00,
2013-05-05 09:31:00,58.0,54.0,29.91,NNE,19,6.0,8.0,88,0.00,,,0.10,,2013-05-05 14:31:00,
2013-05-05 09:42:00,58.0,54.0,29.91,NNE,19,6.0,8.0,88,0.00,,,0.10,,2013-05-05 14:42:00,
2013-05-05 09:52:00,59.0,54.0,29.91,NE,49,8.0,15.0,85,0.00,,,0.10,,2013-05-05 14:52:00,
2013-05-05 10:02:00,59.0,54.0,29.91,ENE,71,2.0,14.0,85,0.00,,,0.10,,2013-05-05 15:02:00,
2013-05-05 10:11:00,59.0,54.0,29.91,ENE,71,2.0,14.0,85,0.00,,,0.10,,2013-05-05 15:11:00,
2013-05-05 10:21:00,60.0,55.0,29.91,ENE,67,1.0,5.0,84,0.00,,,0.10,,2013-05-05 15:21:00,
2013-05-05 10:33:00,61.0,55.0,29.91,ENE,67,0.0,3.0,82,0.00,,,0.10,,2013-05-05 15:33:00,
2013-05-05 10:43:00,61.0,55.0,29.91,ENE,67,0.0,3.0,82,0.00,,,0.10,,2013-05-05 15:43:00,
2013-05-05 10:53:00,61.0,55.0,29.90,NNE,29,0.0,5.0,81,0.00,,,0.10,,2013-05-05 15:53:00,
2013-05-05 11:03:00,62.0,55.0,29.89,NNE,29,0.0,5.0,79,0.00,,,0.10,,2013-05-05 16:03:00,
2013-05-05 11:12:00,62.0,55.0,29.89,NNE,29,0.0,5.0,79,0.00,,,0.10,,2013-05-05 16:12:00,
2013-05-05 11:23:00,62.0,55.0,29.89,NE,44,4.0,6.0,77,0.00,,,0.10,,2013-05-05 16:23:00,
2013-05-05 11:32:00,62.0,55.0,29.89,NNE,15,1.0,5.0,78,0.00,,,0.10,,2013-05-05 16:32:00,
2013-05-05 11:42:00,62.0,55.0,29.89,NNE,15,1.0,5.0,78,0.00,,,0.10,,2013-05-05 16:42:00,
2013-05-05 11:53:00,63.0,55.0,29.88,ENE,58,5.0,10.0,75,0.00,,,0.10,,2013-05-05 16:53:00,
2013-05-05 12:02:00,63.0,54.0,29.89,NE,55,5.0,9.0,73,0.00,,,0.10,,2013-05-05 17:02:00,
2013-05-05 12:12:00,63.0,54.0,29.89,NE,55,5.0,9.0,73,0.00,,,0.10,,2013-05-05 17:12:00,
2013-05-05 12:23:00,64.0,55.0,29.88,NE,43,6.0,15.0,72,0.00,,,0.10,,2013-05-05 17:23:00,
2013-05-05 12:32:00,64.0,55.0,29.88,NE,55,5.0,12.0,72,0.00,,,0.10,,2013-05-05 17:32:00,
2013-05-05 12:42:00,64.0,55.0,29.88,NE,55,5.0,12.0,72,0.00,,,0.10,,2013-05-05 17:42:00,
2013-05-05 12:52:00,65.0,55.0,29.88,ENE,70,1.0,14.0,69,0.00,,,0.10,,2013-05-05 17:52:00,
2013-05-05 13:01:00,66.0,55.0,29.88,East,82,1.0,10.0,67,0.00,,,0.10,,2013-05-05 18:01:00,
2013-05-05 13:12:00,66.0,55.0,29.88,East,82,1.0,10.0,67,0.00,,,0.10,,2013-05-05 18:12:00,
2013-05-05 13:21:00,65.0,51.0,29.88,East,80,10.0,15.0,61,0.00,,,0.10,,2013-05-05 18:21:00,
2013-05-05 13:32:00,65.0,53.0,29.88,SSE,152,5.0,9.0,64,0.00,,,0.09,,2013-05-05 18:32:00,
2013-05-05 13:42:00,65.0,53.0,29.88,SSE,152,5.0,9.0,64,0.00,,,0.09,,2013-05-05 18:42:00,
2013-05-05 13:52:00,66.0,53.0,29.87,SE,130,5.0,15.0,64,0.00,,,0.09,,2013-05-05 18:52:00,
2013-05-05 14:01:00,66.0,53.0,29.86,ENE,74,3.0,10.0,63,0.00,,,0.09,,2013-05-05 19:01:00,
2013-05-05 14:11:00,66.0,53.0,29.86,ENE,74,3.0,10.0,63,0.00,,,0.09,,2013-05-05 19:11:00,
2013-05-05 14:21:00,66.0,52.0,29.87,East,95,4.0,14.0,61,0.00,,,0.09,,2013-05-05 19:21:00,
2013-05-05 14:32:00,66.0,51.0,29.87,ENE,74,5.0,9.0,59,0.00,,,0.09,,2013-05-05 19:32:00,
2013-05-05 14:42:00,66.0,51.0,29.87,ENE,74,5.0,9.0,59,0.00,,,0.09,,2013-05-05 19:42:00,
2013-05-05 14:52:00,65.0,51.0,29.86,East,90,2.0,20.0,61,0.00,,,0.08,,2013-05-05 19:52:00,
2013-05-05 15:01:00,65.0,51.0,29.86,East,80,6.0,15.0,60,0.00,,,0.08,,2013-05-05 20:01:00,
2013-05-05 15:11:00,65.0,51.0,29.86,East,80,6.0,15.0,60,0.00,,,0.08,,2013-05-05 20:11:00,
2013-05-05 15:21:00,63.0,52.0,29.88,ESE,106,4.0,16.0,67,0.00,,,0.07,,2013-05-05 20:21:00,
2013-05-05 15:31:00,62.0,51.0,29.88,East,101,6.0,16.0,68,0.00,,,0.07,,2013-05-05 20:31:00,
2013-05-05 15:41:00,62.0,51.0,29.88,East,101,6.0,16.0,68,0.00,,,0.07,,2013-05-05 20:41:00,
2013-05-05 15:52:00,62.0,51.0,29.88,ESE,122,7.0,15.0,66,0.00,,,0.06,,2013-05-05 20:52:00,
2013-05-05 16:02:00,62.0,51.0,29.88,East,96,5.0,14.0,67,0.00,,,0.06,,2013-05-05 21:02:00,
2013-05-05 16:11:00,62.0,51.0,29.88,East,96,5.0,14.0,67,0.00,,,0.06,,2013-05-05 21:11:00,
2013-05-05 16:21:00,62.0,51.0,29.87,ENE,63,8.0,16.0,66,0.00,,,0.06,,2013-05-05 21:21:00,
2013-05-05 16:33:00,62.0,50.0,29.87,ENE,76,6.0,9.0,65,0.00,,,0.06,,2013-05-05 21:33:00,
2013-05-05 16:42:00,62.0,50.0,29.87,ENE,76,6.0,9.0,65,0.00,,,0.06,,2013-05-05 21:42:00,
2013-05-05 16:53:00,62.0,51.0,29.87,East,94,6.0,10.0,66,0.00,,,0.06,,2013-05-05 21:53:00,
2013-05-05 17:02:00,62.0,51.0,29.88,South,175,4.0,8.0,67,0.00,,,0.06,,2013-05-05 22:02:00,
2013-05-05 17:12:00,62.0,51.0,29.88,South,175,4.0,8.0,67,0.00,,,0.06,,2013-05-05 22:12:00,
2013-05-05 17:22:00,62.0,51.0,29.86,ESE,110,6.0,16.0,67,0.00,,,0.06,,2013-05-05 22:22:00,
2013-05-05 17:33:00,62.0,51.0,29.86,East,101,5.0,9.0,66,0.00,,,0.06,,2013-05-05 22:33:00,
2013-05-05 17:42:00,62.0,51.0,29.86,East,101,5.0,9.0,66,0.00,,,0.06,,2013-05-05 22:42:00,
2013-05-05 17:52:00,61.0,50.0,29.86,East,90,3.0,8.0,67,0.00,,,0.06,,2013-05-05 22:52:00,
2013-05-05 18:02:00,61.0,50.0,29.87,East,88,3.0,8.0,67,0.00,,,0.06,,2013-05-05 23:02:00,
2013-05-05 18:11:00,61.0,50.0,29.87,East,88,3.0,8.0,67,0.00,,,0.06,,2013-05-05 23:11:00,
2013-05-05 18:21:00,61.0,50.0,29.88,East,83,5.0,12.0,66,0.00,,,0.06,,2013-05-05 23:21:00,
2013-05-05 18:32:00,61.0,50.0,29.88,ENE,63,2.0,9.0,67,0.00,,,0.06,,2013-05-05 23:32:00,
2013-05-05 18:42:00,61.0,50.0,29.88,ENE,63,2.0,9.0,67,0.00,,,0.06,,2013-05-05 23:42:00,
2013-05-05 18:52:00,61.0,50.0,29.88,ENE,65,3.0,9.0,68,0.00,,,0.06,,2013-05-05 23:52:00,
2013-05-05 19:01:00,60.0,50.0,29.88,ENE,65,1.0,5.0,69,0.00,,,0.06,,2013-05-06 00:01:00,
2013-05-05 19:11:00,60.0,50.0,29.88,ENE,65,1.0,5.0,69,0.00,,,0.06,,2013-05-06 00:11:00,
2013-05-05 19:21:00,60.0,50.0,29.89,SSW,210,2.0,6.0,70,0.00,,,0.06,,2013-05-06 00:21:00,
2013-05-05 19:31:00,60.0,51.0,29.89,ENE,77,3.0,6.0,71,0.00,,,0.05,,2013-05-06 00:31:00,
2013-05-05 19:41:00,60.0,51.0,29.89,ENE,77,3.0,6.0,71,0.00,,,0.05,,2013-05-06 00:41:00,
2013-05-05 19:52:00,60.0,51.0,29.90,East,81,2.0,8.0,72,0.00,,,0.04,,2013-05-06 00:52:00,
2013-05-05 20:01:00,59.0,50.0,29.90,East,100,1.0,9.0,72,0.00,,,0.04,,2013-05-06 01:01:00,
2013-05-05 20:11:00,59.0,50.0,29.90,East,100,1.0,9.0,72,0.00,,,0.04,,2013-05-06 01:11:00,
2013-05-05 20:21:00,59.0,50.0,29.91,East,82,5.0,10.0,73,0.00,,,0.04,,2013-05-06 01:21:00,
2013-05-05 20:31:00,59.0,51.0,29.91,ENE,68,5.0,9.0,74,0.00,,,0.04,,2013-05-06 01:31:00,
2013-05-05 20:41:00,59.0,51.0,29.91,ENE,68,5.0,9.0,74,0.00,,,0.04,,2013-05-06 01:41:00,
2013-05-05 20:52:00,59.0,50.0,29.91,ENE,67,1.0,6.0,73,0.00,,,0.04,,2013-05-06 01:52:00,
2013-05-05 21:01:00,59.0,51.0,29.91,SE,146,0.0,5.0,74,0.00,,,0.04,,2013-05-06 02:01:00,
2013-05-05 21:12:00,59.0,51.0,29.91,SE,146,0.0,5.0,74,0.00,,,0.04,,2013-05-06 02:12:00,
2013-05-05 21:21:00,58.0,50.0,29.92,East,89,0.0,6.0,74,0.00,,,0.04,,2013-05-06 02:21:00,
2013-05-05 21:32:00,58.0,50.0,29.92,East,80,2.0,5.0,74,0.00,,,0.04,,2013-05-06 02:32:00,
2013-05-05 21:42:00,58.0,50.0,29.92,East,80,2.0,5.0,74,0.00,,,0.04,,2013-05-06 02:42:00,
2013-05-05 21:52:00,58.0,50.0,29.92,East,80,1.0,3.0,74,0.00,,,0.04,,2013-05-06 02:52:00,
2013-05-05 22:02:00,58.0,50.0,29.92,East,80,0.0,1.0,74,0.00,,,0.04,,2013-05-06 03:02:00,
2013-05-05 22:11:00,58.0,50.0,29.92,East,80,0.0,1.0,74,0.00,,,0.04,,2013-05-06 03:11:00,
2013-05-05 22:22:00,58.0,50.0,29.91,East,80,0.0,5.0,76,0.00,,,0.04,,2013-05-06 03:22:00,
2013-05-05 22:33:00,58.0,50.0,29.91,East,80,0.0,5.0,76,0.00,,,0.04,,2013-05-06 03:33:00,
2013-05-05 22:42:00,58.0,50.0,29.91,East,80,0.0,5.0,76,0.00,,,0.04,,2013-05-06 03:42:00,
2013-05-05 22:52:00,58.0,49.0,29.91,NE,46,1.0,8.0,73,0.00,,,0.04,,2013-05-06 03:52:00,
2013-05-05 23:02:00,58.0,50.0,29.91,NE,44,3.0,5.0,74,0.00,,,0.04,,2013-05-06 04:02:00,
2013-05-05 23:12:00,58.0,50.0,29.91,NE,44,3.0,5.0,74,0.00,,,0.04,,2013-05-06 04:12:00,
2013-05-05 23:23:00,57.0,49.0,29.91,NNE,25,3.0,10.0,75,0.00,,,0.04,,2013-05-06 04:23:00,
2013-05-05 23:32:00,57.0,50.0,29.91,North,357,6.0,9.0,76,0.00,,,0.04,,2013-05-06 04:32:00,
2013-05-05 23:42:00,57.0,50.0,29.91,North,357,6.0,9.0,76,0.00,,,0.04,,2013-05-06 04:42:00,
2013-05-05 23:53:00,57.0,50.0,29.91,North,0,0.0,3.0,76,0.00,,,0.04,,2013-05-06 04:53:00,